Change the Weather History Date:

Friday, April 12, 2013

  Actual Average (KLWV) Record (KLWV)
Temperature  
Mean Temperature 44 °F 55 °F  
Max Temperature 51 °F 66 °F 82 °F (2006)
Min Temperature 37 °F 44 °F 34 °F (2009)
Degree Days  
Heating Degree Days 22 11  
Month to date heating degree days 154  
Since 1 July heating degree days 4451  
Cooling Degree Days 0 1  
Month to date cooling degree days 6  
Year to date cooling degree days 8  
Moisture  
Dew Point 33 °F    
Average Humidity 65    
Maximum Humidity 80    
Minimum Humidity 49    
Precipitation  
Precipitation 0.00 in 0.11 in 1.53 in (1979)
Month to date precipitation 1.34  
Year to date precipitation 9.16  
Sea Level Pressure  
Sea Level Pressure 29.85 in    
Wind  
Wind Speed 12 mph (SW)    
Max Wind Speed 21 mph    
Max Gust Speed 29 mph    
Visibility 10 miles    
Events      
T = Trace of Precipitation, MM = Missing Value Source: NWS Daily Summary

Daily Weather History Graph

Daily Weather History Graph

Search for Another Location

Airport or City:

Trip Planner

Search our weather history database for the weather conditions in past years. The results will help you decide how hot, cold, wet, or windy it might be!

Date:

Astronomy

Apr. 12, 2013 Rise Set
Actual Time 6:18 AM CDT 7:25 PM CDT
Civil Twilight 5:50 AM CDT 7:52 PM CDT
Nautical Twilight 5:17 AM CDT 8:25 PM CDT
Astronomical Twilight 4:43 AM CDT 8:59 PM CDT
Moon 7:28 AM CDT (4/12) 9:54 PM CDT (4/12)
Length of Visible Light 14h 02m
Length of Day
13h 07m
Waxing Crescent, 5% of the Moon is Illuminated
Apr 12
Waxing Crescent
Apr 18
First Quarter
Apr 25
Full
May 2
Last Quarter
May 9
New

Hourly Weather History & Observations

Time (CDT) Temp. Windchill Dew Point Humidity Pressure Visibility Wind Dir Wind Speed Gust Speed Precip Events Conditions
12:15 AM 43.2 °F 37.9 °F 34.7 °F 72% 29.74 in 10.0 mi West 9.2 mph - N/A   Overcast
12:35 AM 43.2 °F 36.6 °F 33.6 °F 69% 29.74 in 10.0 mi West 12.7 mph - N/A   Overcast
1:15 AM 43.0 °F 35.7 °F 33.8 °F 70% 29.73 in 10.0 mi West 15.0 mph 19.6 mph N/A   Overcast
1:35 AM 42.8 °F 34.3 °F 33.1 °F 69% 29.74 in 10.0 mi West 19.6 mph 24.2 mph N/A   Overcast
1:55 AM 42.8 °F 35.1 °F 33.1 °F 69% 29.73 in 10.0 mi West 16.1 mph 20.7 mph N/A   Overcast
2:15 AM 41.9 °F 34.3 °F 32.0 °F 68% 29.73 in 10.0 mi WSW 15.0 mph 21.9 mph N/A   Mostly Cloudy
2:35 AM 41.2 °F 34.1 °F 31.1 °F 67% 29.73 in 10.0 mi WSW 12.7 mph 25.3 mph N/A   Clear
2:55 AM 40.1 °F 34.1 °F 31.3 °F 71% 29.72 in 10.0 mi WSW 9.2 mph 16.1 mph N/A   Clear
3:15 AM 39.6 °F 34.7 °F 30.9 °F 71% 29.72 in 10.0 mi WSW 6.9 mph - N/A   Clear
3:35 AM 38.8 °F 32.6 °F 31.3 °F 74% 29.73 in 10.0 mi WSW 9.2 mph - N/A   Clear
3:55 AM 38.7 °F 32.9 °F 31.1 °F 74% 29.73 in 10.0 mi WSW 8.1 mph - N/A   Clear
4:15 AM 37.9 °F 32.1 °F 31.1 °F 76% 29.73 in 10.0 mi WSW 8.1 mph - N/A   Clear
4:35 AM 37.8 °F 32.5 °F 31.1 °F 77% 29.74 in 10.0 mi SW 6.9 mph - N/A   Clear
4:55 AM 37.4 °F 33.8 °F 31.1 °F 78% 29.75 in 10.0 mi SSW 4.6 mph - N/A   Clear
5:15 AM 37.2 °F 31.9 °F 31.3 °F 79% 29.75 in 10.0 mi South 6.9 mph - N/A   Clear
5:35 AM 37.4 °F 31.4 °F 31.8 °F 80% 29.76 in 10.0 mi South 8.1 mph - N/A   Mostly Cloudy
5:55 AM 38.3 °F 32.5 °F 32.0 °F 78% 29.76 in 10.0 mi South 8.1 mph - N/A   Overcast
6:15 AM 39.0 °F 34.8 °F 32.2 °F 76% 29.77 in 10.0 mi South 5.8 mph - N/A   Overcast
6:35 AM 39.2 °F 35.0 °F 32.9 °F 78% 29.77 in 10.0 mi South 5.8 mph - N/A   Overcast
6:55 AM 39.9 °F 35.8 °F 33.1 °F 77% 29.77 in 10.0 mi South 5.8 mph - N/A   Overcast
7:15 AM 40.1 °F 35.3 °F 33.6 °F 78% 29.78 in 10.0 mi South 6.9 mph - N/A   Overcast
7:35 AM 40.8 °F 36.2 °F 34.0 °F 77% 29.78 in 10.0 mi South 6.9 mph - N/A   Overcast
7:55 AM 41.9 °F 35.9 °F 34.2 °F 74% 29.78 in 10.0 mi SSW 10.4 mph - N/A   Overcast
8:15 AM 43.0 °F 36.0 °F 34.7 °F 73% 29.78 in 10.0 mi SSW 13.8 mph - N/A   Overcast
8:35 AM 44.4 °F 38.2 °F 34.7 °F 69% 29.79 in 10.0 mi SW 12.7 mph - N/A   Scattered Clouds
8:55 AM 45.5 °F 38.9 °F 35.1 °F 67% 29.78 in 10.0 mi SW 15.0 mph 18.4 mph N/A   Scattered Clouds
9:15 AM 46.8 °F - 35.1 °F 64% 29.78 in 10.0 mi SSW 16.1 mph 20.7 mph N/A   Scattered Clouds
9:55 AM 45.7 °F 39.8 °F 31.1 °F 57% 29.79 in 10.0 mi SW 12.7 mph 21.9 mph N/A   Mostly Cloudy
10:15 AM 45.3 °F 38.4 °F 31.3 °F 58% 29.80 in 10.0 mi SW 16.1 mph 21.9 mph N/A   Overcast
10:35 AM 45.1 °F 39.1 °F 31.8 °F 60% 29.81 in 10.0 mi SW 12.7 mph 18.4 mph N/A   Overcast
10:55 AM 45.7 °F 38.3 °F 31.8 °F 58% 29.82 in 10.0 mi SW 18.4 mph 24.2 mph N/A   Overcast
11:15 AM 45.7 °F 38.6 °F 30.9 °F 56% 29.82 in 10.0 mi SSW 17.3 mph 23.0 mph N/A   Overcast
11:35 AM 45.7 °F 39.5 °F 32.5 °F 60% 29.82 in 10.0 mi SW 13.8 mph 18.4 mph N/A   Overcast
11:55 AM 45.5 °F 38.3 °F 31.6 °F 58% 29.83 in 10.0 mi SSW 17.3 mph - N/A   Overcast
12:15 PM 45.5 °F 37.8 °F 31.3 °F 58% 29.84 in 10.0 mi SW 19.6 mph 25.3 mph N/A   Overcast
12:35 PM 46.4 °F 39.2 °F 31.8 °F 57% 29.84 in 10.0 mi WSW 18.4 mph - N/A   Overcast
12:55 PM 45.7 °F 38.3 °F 32.4 °F 60% 29.85 in 10.0 mi WSW 18.4 mph 24.2 mph N/A   Overcast
1:15 PM 45.9 °F 38.3 °F 32.4 °F 59% 29.85 in 10.0 mi SW 19.6 mph 24.2 mph N/A   Overcast
1:35 PM 46.9 °F - 32.4 °F 57% 29.86 in 10.0 mi WSW 19.6 mph 25.3 mph N/A   Overcast
1:55 PM 47.1 °F - 32.7 °F 57% 29.87 in 10.0 mi SW 19.6 mph 26.5 mph N/A   Overcast
2:15 PM 49.3 °F - 33.6 °F 55% 29.87 in 10.0 mi SW 20.7 mph 25.3 mph N/A   Mostly Cloudy
2:35 PM 48.9 °F - 32.2 °F 52% 29.87 in 10.0 mi SW 18.4 mph 28.8 mph N/A   Mostly Cloudy
2:55 PM 50.4 °F - 32.7 °F 51% 29.87 in 10.0 mi SW 17.3 mph 25.3 mph N/A   Overcast
3:15 PM 50.5 °F - 32.2 °F 49% 29.87 in 10.0 mi WSW 18.4 mph - N/A   Overcast
3:35 PM 49.3 °F - 32.5 °F 53% 29.88 in 10.0 mi SW 19.6 mph - N/A   Overcast
3:55 PM 49.1 °F - 32.5 °F 53% 29.89 in 10.0 mi SW 16.1 mph 25.3 mph N/A   Overcast
4:15 PM 48.6 °F - 32.7 °F 54% 29.89 in 10.0 mi WSW 13.8 mph 21.9 mph N/A   Overcast
4:35 PM 48.4 °F - 33.3 °F 56% 29.90 in 10.0 mi WSW 13.8 mph 20.7 mph N/A   Overcast
4:55 PM 48.6 °F - 32.0 °F 53% 29.91 in 10.0 mi WSW 13.8 mph - N/A   Overcast
5:15 PM 48.4 °F - 33.3 °F 56% 29.92 in 10.0 mi WSW 15.0 mph 21.9 mph N/A   Overcast
5:35 PM 48.2 °F - 33.3 °F 56% 29.92 in 10.0 mi West 12.7 mph - N/A   Overcast
5:55 PM 47.7 °F - 32.5 °F 56% 29.93 in 10.0 mi WSW 16.1 mph 20.7 mph N/A   Overcast
6:15 PM 47.3 °F - 32.7 °F 57% 29.94 in 10.0 mi West 15.0 mph 20.7 mph N/A   Overcast
6:35 PM 46.8 °F - 32.5 °F 58% 29.94 in 10.0 mi WSW 12.7 mph - N/A   Overcast
6:55 PM 46.6 °F - 32.2 °F 57% 29.94 in 10.0 mi West 15.0 mph 21.9 mph N/A   Overcast
7:15 PM 46.2 °F 40.8 °F 32.9 °F 60% 29.94 in 10.0 mi WSW 11.5 mph - N/A   Overcast
7:35 PM 45.9 °F 41.2 °F 32.7 °F 60% 29.95 in 10.0 mi WSW 9.2 mph - N/A   Overcast
7:55 PM 45.7 °F 40.6 °F 32.9 °F 61% 29.95 in 10.0 mi West 10.4 mph - N/A   Overcast
8:15 PM 45.5 °F 39.9 °F 33.1 °F 62% 29.96 in 10.0 mi West 11.5 mph 17.3 mph N/A   Overcast
8:35 PM 45.0 °F 40.1 °F 33.4 °F 64% 29.97 in 10.0 mi West 9.2 mph - N/A   Overcast
8:55 PM 44.8 °F 41.0 °F 34.5 °F 67% 29.97 in 10.0 mi West 6.9 mph - N/A   Overcast
9:15 PM 44.8 °F 40.4 °F 34.2 °F 66% 29.98 in 10.0 mi West 8.1 mph - N/A   Overcast
9:35 PM 44.6 °F 38.8 °F 34.2 °F 67% 29.98 in 10.0 mi West 11.5 mph - N/A   Overcast
9:55 PM 44.1 °F 39.0 °F 34.3 °F 69% 29.99 in 10.0 mi SW 9.2 mph - N/A   Mostly Cloudy
10:15 PM 42.6 °F 37.2 °F 32.4 °F 67% 29.99 in 10.0 mi WSW 9.2 mph - N/A   Scattered Clouds
10:35 PM 43.2 °F 39.0 °F 32.7 °F 67% 29.99 in 10.0 mi WSW 6.9 mph - N/A   Mostly Cloudy
10:55 PM 43.9 °F 38.3 °F 32.2 °F 63% 29.99 in 10.0 mi WSW 10.4 mph - N/A   Overcast
11:15 PM 44.1 °F 38.6 °F 32.5 °F 64% 30.00 in 10.0 mi WSW 10.4 mph - N/A   Overcast
11:35 PM 43.7 °F 38.1 °F 33.3 °F 67% 30.00 in 10.0 mi WSW 10.4 mph - N/A   Overcast
11:55 PM 43.7 °F 38.1 °F 33.6 °F 68% 30.00 in 10.0 mi WSW 10.4 mph - N/A   Overcast